Weather History for Shreveport Downtown, LA

Change the Weather History Date:

Friday, May 3, 2013

  Actual Average (KSHV) Record (KSHV)
Temperature  
Mean Temperature 52 °F 70 °F  
Max Temperature 62 °F 81 °F 92 °F (1943)
Min Temperature 41 °F 59 °F 41 °F (2013)
Degree Days  
Heating Degree Days 14 1  
Month to date heating degree days 3  
Since 1 July heating degree days 2222  
Cooling Degree Days 0 6  
Month to date cooling degree days 16  
Year to date cooling degree days 151  
Growing Degree Days 2 (Base 50)    
Moisture  
Dew Point 38 °F    
Average Humidity 74    
Maximum Humidity 93    
Minimum Humidity 27    
Precipitation  
Precipitation 0.04 in 0.17 in 4.31 in (1991)
Month to date precipitation 0.49  
Year to date precipitation 17.77  
Snow  
Snow 0.00 in - - ()
Month to date snowfall  
Since 1 July snowfall  
Snow Depth -    
Sea Level Pressure  
Sea Level Pressure 30.10 in    
Wind  
Wind Speed 12 mph (NW)    
Max Wind Speed 17 mph    
Max Gust Speed 28 mph    
Visibility 9 miles    
Events Rain    
T = Trace of Precipitation, MM = Missing Value Source: NWS Daily Summary

Daily Weather History Graph

Daily Weather History Graph

Search for Another Location

Airport:

Trip Planner

Search our weather history database for the weather conditions in past years. The results will help you decide how hot, cold, wet, or windy it might be!

Date:

Astronomy

May. 03, 2013 Rise Set
Actual Time 6:26 AM CDT 7:58 PM CDT
Civil Twilight 5:59 AM CDT 8:24 PM CDT
Nautical Twilight 5:28 AM CDT 8:55 PM CDT
Astronomical Twilight 4:55 AM CDT 9:29 PM CDT
Moon 2:29 AM CDT (5/3) 2:12 PM CDT (5/3)
Length of Visible Light 14h 24m
Length of Day
13h 31m
Last Quarter, 37% of the Moon is Illuminated
May 3
Last Quarter
May 9
New
May 17
First Quarter
May 24
Full
May 31
Last Quarter

Hourly Weather History & Observations

Time (CDT) Temp. Windchill Dew Point Humidity Pressure Visibility Wind Dir Wind Speed Gust Speed Precip Events Conditions
12:00 AM 48.2 °F - 42.8 °F 82% 30.14 in 10.0 mi NW 13.8 mph 21.9 mph N/A   Overcast
12:53 AM 46.9 °F - 43.0 °F 86% 30.13 in 10.0 mi NW 16.1 mph 24.2 mph N/A   Overcast
1:53 AM 45.0 °F 38.9 °F 41.0 °F 86% 30.12 in 10.0 mi NW 12.7 mph 21.9 mph N/A   Overcast
2:24 AM 44.6 °F 38.8 °F 41.0 °F 87% 30.11 in 10.0 mi NW 11.5 mph 19.6 mph N/A   Overcast
2:30 AM 44.6 °F 40.7 °F 41.0 °F 87% 30.11 in 8.0 mi NW 6.9 mph - N/A   Overcast
2:38 AM 44.6 °F 38.4 °F 42.8 °F 93% 30.11 in 5.0 mi NW 12.7 mph 17.3 mph N/A   Overcast
2:53 AM 44.1 °F 37.7 °F 41.0 °F 89% 30.11 in 7.0 mi NW 12.7 mph 20.7 mph N/A   Overcast
3:14 AM 42.8 °F 36.2 °F 41.0 °F 93% 30.11 in 6.0 mi NW 12.7 mph 23.0 mph N/A   Overcast
3:28 AM 42.8 °F 37.5 °F 41.0 °F 93% 30.11 in 4.0 mi NW 9.2 mph 17.3 mph 0.00 in Rain Light Rain
3:53 AM 42.1 °F 34.9 °F 39.9 °F 92% 30.11 in 3.0 mi NW 13.8 mph 25.3 mph 0.01 in Rain Light Rain
4:23 AM 42.8 °F 36.2 °F 39.2 °F 87% 30.11 in 8.0 mi WNW 12.7 mph - 0.01 in   Overcast
4:30 AM 42.8 °F 35.8 °F 39.2 °F 87% 30.11 in 9.0 mi NW 13.8 mph 20.7 mph 0.01 in   Overcast
4:53 AM 42.1 °F 34.9 °F 39.9 °F 92% 30.11 in 8.0 mi NW 13.8 mph 19.6 mph 0.01 in Rain Light Rain
5:02 AM 42.8 °F 36.2 °F 39.2 °F 87% 30.11 in 7.0 mi NW 12.7 mph 18.4 mph 0.00 in Rain Light Rain
5:27 AM 42.8 °F 35.8 °F 39.2 °F 87% 30.11 in 9.0 mi NW 13.8 mph 19.6 mph 0.01 in Rain Light Rain
5:53 AM 41.0 °F 33.9 °F 39.0 °F 93% 30.12 in 7.0 mi NW 12.7 mph 20.7 mph 0.01 in Rain Light Rain
6:04 AM 41.0 °F 34.3 °F 39.2 °F 93% 30.11 in 7.0 mi NW 11.5 mph 20.7 mph 0.00 in Rain Light Rain
6:11 AM 41.0 °F 34.3 °F 39.2 °F 93% 30.12 in 6.0 mi NW 11.5 mph - 0.01 in Rain Light Rain
6:18 AM 41.0 °F 33.1 °F 37.4 °F 87% 30.12 in 8.0 mi NW 15.0 mph 24.2 mph 0.01 in Rain Light Rain
6:41 AM 41.0 °F 34.7 °F 37.4 °F 87% 30.12 in 10.0 mi NW 10.4 mph 19.6 mph 0.01 in   Overcast
6:53 AM 41.0 °F 34.3 °F 37.9 °F 89% 30.12 in 10.0 mi NW 11.5 mph 19.6 mph 0.01 in   Overcast
7:53 AM 41.0 °F 34.3 °F 37.9 °F 89% 30.13 in 10.0 mi NW 11.5 mph 19.6 mph 0.00 in   Overcast
8:17 AM 41.0 °F 33.1 °F 37.4 °F 87% 30.14 in 10.0 mi NW 15.0 mph 21.9 mph N/A   Overcast
8:53 AM 42.1 °F 34.5 °F 37.0 °F 82% 30.15 in 10.0 mi NW 15.0 mph 21.9 mph N/A   Overcast
9:53 AM 44.1 °F 37.1 °F 37.0 °F 76% 30.15 in 10.0 mi NW 15.0 mph 27.6 mph N/A   Overcast
10:53 AM 46.9 °F - 39.0 °F 74% 30.14 in 10.0 mi WNW 17.3 mph 25.3 mph N/A   Overcast
11:53 AM 50.0 °F - 39.0 °F 66% 30.14 in 10.0 mi NW 12.7 mph 21.9 mph N/A   Overcast
12:21 PM 53.6 °F - 39.2 °F 58% 30.13 in 10.0 mi NNW 13.8 mph 23.0 mph N/A   Scattered Clouds
12:53 PM 54.0 °F - 39.0 °F 57% 30.12 in 10.0 mi NNW 11.5 mph 27.6 mph N/A   Scattered Clouds
1:53 PM 55.9 °F - 39.0 °F 53% 30.10 in 10.0 mi NW 10.4 mph 19.6 mph N/A   Scattered Clouds
2:53 PM 60.1 °F - 37.9 °F 44% 30.07 in 10.0 mi WNW 17.3 mph 21.9 mph N/A   Mostly Cloudy
3:53 PM 61.0 °F - 33.1 °F 35% 30.04 in 10.0 mi NW 12.7 mph 21.9 mph N/A   Partly Cloudy
4:53 PM 62.1 °F - 28.9 °F 29% 30.03 in 10.0 mi NW 15.0 mph 25.3 mph N/A   Clear
5:53 PM 61.0 °F - 27.0 °F 27% 30.03 in 10.0 mi NNW 15.0 mph 25.3 mph N/A   Clear
6:53 PM 60.1 °F - 28.9 °F 31% 30.03 in 10.0 mi NNW 8.1 mph 21.9 mph N/A   Partly Cloudy
7:53 PM 57.0 °F - 30.9 °F 37% 30.04 in 10.0 mi NW 6.9 mph - N/A   Clear
8:53 PM 54.0 °F - 33.1 °F 45% 30.04 in 10.0 mi NW 3.5 mph - N/A   Clear
9:53 PM 46.9 °F - 37.0 °F 68% 30.05 in 10.0 mi Calm Calm - N/A   Clear
10:53 PM 48.9 °F - 37.0 °F 64% 30.04 in 10.0 mi Calm Calm - N/A   Clear
11:53 PM 46.9 °F - 39.0 °F 74% 30.03 in 10.0 mi Calm Calm - N/A   Clear